Location: Unspecified
(44.0704°N, 88.6889°W)
Time: 19:20:52
(UTC+02:00)

Vanguard 3 - All Passes

Search period start: 24 June 2019 00:00
Search period end: 04 July 2019 00:00
Orbit: 508 x 3263 km, 33.3° (Epoch: 23 June)

Date Brightness Start Highest point End Pass type
(mag) Time Alt. Az. Time Alt. Az. Time Alt. Az.
24 Jun - 15:39:04 10° S 15:48:20 17° SSE 15:55:55 10° ESE daylight
24 Jun - 17:48:41 10° SW 18:01:58 33° SSE 18:10:35 10° ESE daylight
24 Jun - 20:03:20 10° WSW 20:14:53 42° S 20:21:39 10° ESE daylight
24 Jun - 22:19:04 10° WSW 22:26:26 29° SSW 22:31:13 10° SE daylight
25 Jun - 16:33:27 10° SSW 16:46:50 28° SSE 16:56:22 10° ESE daylight
25 Jun - 18:46:46 10° SW 19:00:21 42° S 19:08:32 10° ESE daylight
25 Jun - 21:02:33 10° WSW 21:12:46 40° SSW 21:18:50 10° SE daylight
25 Jun - 23:18:52 10° WSW 23:23:32 17° SW 23:27:01 10° S daylight
26 Jun - 15:19:35 10° S 15:31:29 21° SSE 15:40:59 10° ESE daylight
26 Jun - 17:30:28 10° SW 17:45:21 38° SSE 17:54:58 10° E daylight
26 Jun - 19:45:45 10° WSW 19:58:35 45° S 20:06:02 10° ESE daylight
26 Jun - 22:02:02 10° W 22:10:16 30° SSW 22:15:30 10° SE daylight
27 Jun - 14:08:30 10° SSE 14:16:07 14° SE 14:22:59 10° ESE daylight
27 Jun - 16:14:56 10° SSW 16:30:00 32° SSE 16:40:45 10° E daylight
27 Jun - 18:28:54 10° WSW 18:43:50 46° S 18:52:51 10° ESE daylight
27 Jun - 20:45:11 10° WSW 20:56:30 41° SSW 21:03:10 10° SE daylight
27 Jun - 23:02:10 10° WSW 23:07:16 17° SW 23:11:05 10° S daylight
28 Jun - 15:00:38 10° SSW 15:14:28 25° SSE 15:25:33 10° E daylight
28 Jun - 17:12:23 10° SW 17:28:37 43° SSE 17:39:12 10° E daylight
28 Jun - 19:28:07 10° WSW 19:42:09 48° S 19:50:20 10° ESE daylight
28 Jun - 21:44:54 10° W 21:54:00 30° SSW 21:59:43 10° SSE daylight
29 Jun - 13:48:26 10° S 13:59:00 17° SE 14:08:27 10° ESE daylight
29 Jun - 15:56:38 10° SW 16:13:02 37° SSE 16:24:56 10° E daylight
29 Jun - 18:11:04 10° WSW 18:27:12 50° S 18:37:03 10° ESE daylight
29 Jun - 20:27:45 10° W 20:40:08 42° SSW 20:47:24 10° SE daylight
29 Jun - 22:45:22 10° WSW 22:50:55 17° SW 22:55:04 10° S daylight
30 Jun - 14:42:04 10° SSW 14:57:19 29° SSE 15:09:47 10° E daylight
30 Jun - 16:54:25 10° SW 17:11:44 47° SSE 17:23:19 10° E daylight
30 Jun - 19:10:28 10° WSW 19:25:36 50° S 19:34:32 10° ESE daylight
30 Jun - 21:27:40 10° W 21:37:36 30° SSW 21:43:52 10° SSE daylight
01 Jul - 13:29:17 10° S 13:41:44 21° SE 13:53:04 10° E daylight
01 Jul - 15:38:33 10° SW 15:55:56 41° SSE 16:08:58 10° E daylight
01 Jul - 17:53:17 10° WSW 18:10:26 53° S 18:21:10 10° ESE daylight
01 Jul - 20:10:14 10° W 20:23:38 43° SSW 20:31:35 10° SE daylight
01 Jul - 22:28:30 10° WSW 22:34:28 17° SW 22:38:56 10° S daylight
02 Jul - 12:20:36 10° SSE 12:26:28 12° SE 12:32:16 10° ESE daylight
02 Jul - 14:23:50 10° SSW 14:40:03 33° SSE 14:53:46 10° E daylight
02 Jul - 16:36:33 10° SW 16:54:45 51° SSE 17:07:18 10° E daylight
02 Jul - 18:52:48 10° WSW 19:08:56 52° S 19:18:40 10° ESE daylight
02 Jul - 21:10:22 10° W 21:21:05 30° SSW 21:27:55 10° SSE daylight
03 Jul - 13:10:41 10° S 13:24:21 24° SE 13:37:13 10° E daylight
03 Jul - 15:20:39 10° SW 15:38:43 45° SSE 15:52:49 10° E daylight
03 Jul - 17:35:33 10° WSW 17:53:33 55° S 18:05:12 10° ESE daylight
03 Jul - 19:52:41 10° W 20:07:00 43° SSW 20:15:40 10° SE daylight
03 Jul - 22:11:35 10° W 22:17:54 17° SW 22:22:40 10° S daylight
